| time (UTC) | temp C | wind direction | speed KPH | gust KPH | rain 1hr cm | rain 24hr cm | rain mn cm | humidity % | barometer mb |
| 20260505153034 | 18 | 360 | 16.1 | 30.6 | 0.00 | 0.00 | 0.00 | 48 | 1009.8 |
| 20260505151531 | 18 | 360 | 14.5 | 32.2 | 0.00 | 0.00 | 0.00 | 48 | 1009.7 |
| 20260505124553 | 16 | 360 | 12.9 | 24.1 | 0.00 | 0.00 | 0.00 | 53 | 1008.3 |
| 20260505123051 | 17 | 360 | 11.3 | 25.7 | 0.00 | 0.00 | 0.00 | 53 | 1008.1 |
| 20260505121546 | 17 | 360 | 11.3 | 22.5 | 0.00 | 0.00 | 0.00 | 52 | 1008.1 |
| 20260505120043 | 17 | 360 | 11.3 | 22.5 | 0.00 | 0.00 | 0.00 | 52 | 1007.9 |
| 20260505114541 | 17 | 360 | 9.7 | 22.5 | 0.00 | 0.00 | 0.00 | 51 | 1007.9 |
| 20260505113047 | 17 | 360 | 8.0 | 19.3 | 0.00 | 0.00 | 0.00 | 51 | 1007.9 |
| 20260505111637 | 18 | 360 | 6.4 | 20.9 | 0.00 | 0.00 | 0.00 | 51 | 1007.7 |
| 20260505101546 | 18 | 360 | 11.3 | 29.0 | 0.00 | 0.00 | 0.00 | 51 | 1007.3 |
| 20260505100050 | 18 | 360 | 16.1 | 24.1 | 0.00 | 0.00 | 0.00 | 51 | 1007.1 |
| 20260505094527 | 19 | 360 | 11.3 | 19.3 | 0.00 | 0.00 | 0.00 | 50 | 1007.4 |
| 20260505093022 | 19 | 360 | 14.5 | 32.2 | 0.00 | 0.00 | 0.00 | 49 | 1007.0 |
| 20260505091515 | 19 | 360 | 16.1 | 30.6 | 0.00 | 0.00 | 0.00 | 49 | 1006.4 |
| 20260505090012 | 19 | 360 | 22.5 | 37.0 | 0.00 | 0.00 | 0.00 | 49 | 1006.4 |
| 20260505084509 | 19 | 360 | 20.9 | 29.0 | 0.00 | 0.00 | 0.00 | 49 | 1006.3 |
| 20260505083006 | 20 | 360 | 22.5 | 37.0 | 0.00 | 0.00 | 0.00 | 48 | 1006.2 |
| 20260505081506 | 20 | 360 | 19.3 | 30.6 | 0.00 | 0.00 | 0.00 | 48 | 1006.2 |
| 20260505080001 | 20 | 360 | 17.7 | 32.2 | 0.00 | 0.00 | 0.00 | 48 | 1006.0 |
| 20260505074557 | 20 | 360 | 17.7 | 32.2 | 0.00 | 0.00 | 0.00 | 48 | 1006.0 |
| 20260505073058 | 20 | 360 | 17.7 | 30.6 | 0.00 | 0.00 | 0.00 | 47 | 1005.8 |
| 20260505071555 | 20 | 360 | 19.3 | 33.8 | 0.00 | 0.00 | 0.00 | 46 | 1005.9 |
| 20260505070047 | 20 | 360 | 12.9 | 29.0 | 0.00 | 0.00 | 0.00 | 45 | 1005.9 |
| 20260505064547 | 21 | 360 | 16.1 | 30.6 | 0.00 | 0.00 | 0.00 | 44 | 1005.7 |
| 20260505063050 | 21 | 360 | 14.5 | 30.6 | 0.00 | 0.00 | 0.00 | 43 | 1005.7 |
| 20260505061546 | 21 | 360 | 17.7 | 29.0 | 0.00 | 0.00 | 0.00 | 43 | 1005.6 |
| 20260505060047 | 21 | 360 | 19.3 | 29.0 | 0.00 | 0.00 | 0.00 | 42 | 1005.2 |
| 20260505054548 | 21 | 360 | 22.5 | 38.6 | 0.00 | 0.00 | 0.00 | 41 | 1005.1 |
| 20260505053047 | 22 | 360 | 17.7 | 35.4 | 0.00 | 0.00 | 0.00 | 40 | 1005.1 |
| 20260505051545 | 22 | 360 | 19.3 | 30.6 | 0.00 | 0.00 | 0.00 | 40 | 1005.1 |
| 20260505041541 | 23 | 360 | 19.3 | 29.0 | 0.00 | 0.00 | 0.00 | 37 | 1005.0 |
| 20260505040043 | 23 | 360 | 16.1 | 35.4 | 0.00 | 0.00 | 0.00 | 36 | 1004.7 |
| 20260505034545 | 23 | 360 | 19.3 | 29.0 | 0.00 | 0.00 | 0.00 | 35 | 1004.4 |
| 20260505033039 | 24 | 360 | 12.9 | 29.0 | 0.00 | 0.00 | 0.00 | 34 | 1004.4 |
| 20260505031547 | 25 | 360 | 16.1 | 32.2 | 0.00 | 0.00 | 0.00 | 32 | 1004.2 |
| 20260505030038 | 25 | 360 | 12.9 | 24.1 | 0.00 | 0.00 | 0.00 | 30 | 1004.3 |
| 20260505024538 | 26 | 355 | 9.7 | 24.1 | 0.00 | 0.00 | 0.00 | 27 | 1004.2 |
| 20260505023037 | 27 | 355 | 14.5 | 25.7 | 0.00 | 0.00 | 0.00 | 23 | 1004.1 |
| 20260505021536 | 28 | 355 | 11.3 | 22.5 | 0.00 | 0.00 | 0.00 | 21 | 1003.9 |
| 20260505020037 | 28 | 355 | 8.0 | 27.4 | 0.00 | 0.00 | 0.00 | 19 | 1004.1 |
| 20260505014535 | 29 | 5 | 12.9 | 24.1 | 0.00 | 0.00 | 0.00 | 18 | 1004.1 |
| 20260505013032 | 30 | 5 | 11.3 | 22.5 | 0.00 | 0.00 | 0.00 | 16 | 1004.2 |
| 20260505011536 | 30 | 14 | 16.1 | 25.7 | 0.00 | 0.00 | 0.00 | 14 | 1004.2 |
| 20260505010053 | 30 | 30 | 12.9 | 24.1 | 0.00 | 0.00 | 0.00 | 15 | 1004.2 |
| 20260505004529 | 31 | 73 | 8.0 | 17.7 | 0.00 | 0.00 | 0.00 | 12 | 1004.2 |
| 20260505003026 | 31 | 73 | 4.8 | 11.3 | 0.00 | 0.00 | 0.00 | 12 | 1004.2 |
| 20260505001523 | 31 | 73 | 3.2 | 9.7 | 0.00 | 0.00 | 0.00 | 12 | 1004.1 |
| 20260505000032 | 30 | 73 | 6.4 | 16.1 | 0.00 | 0.00 | 0.00 | 11 | 1004.3 |
| 20260504234516 | 31 | 73 | 12.9 | 17.7 | 0.00 | 0.00 | 0.00 | 10 | 1004.4 |
| 20260504233012 | 30 | 73 | 6.4 | 16.1 | 0.00 | 0.00 | 0.00 | 11 | 1004.4 |
| 20260504231508 | 30 | 74 | 9.7 | 17.7 | 0.00 | 0.00 | 0.00 | 11 | 1004.5 |
| 20260504230006 | 31 | 75 | 3.2 | 9.7 | 0.00 | 0.00 | 0.00 | 13 | 1004.7 |
| 20260504224502 | 31 | 75 | 4.8 | 9.7 | 0.00 | 0.00 | 0.00 | 13 | 1004.8 |
| 20260504223104 | 30 | 75 | 4.8 | 9.7 | 0.00 | 0.00 | 0.00 | 12 | 1004.8 |
| 20260504221604 | 30 | 75 | 3.2 | 8.0 | 0.00 | 0.00 | 0.00 | 14 | 1004.8 |
| 20260504220052 | 30 | 75 | 3.2 | 9.7 | 0.00 | 0.00 | 0.00 | 14 | 1005.0 |
| 20260504214559 | 30 | 75 | 3.2 | 8.0 | 0.00 | 0.00 | 0.00 | 13 | 1005.4 |
| 20260504213100 | 30 | 75 | 6.4 | 11.3 | 0.00 | 0.00 | 0.00 | 15 | 1005.5 |
| 20260504211547 | 29 | 75 | 3.2 | 8.0 | 0.00 | 0.00 | 0.00 | 15 | 1005.8 |
| 20260504210039 | 28 | 75 | 3.2 | 14.5 | 0.00 | 0.00 | 0.00 | 16 | 1005.9 |
| 20260504204535 | 28 | 75 | 3.2 | 12.9 | 0.00 | 0.00 | 0.00 | 17 | 1006.3 |
| 20260504203044 | 27 | 75 | 4.8 | 14.5 | 0.00 | 0.00 | 0.00 | 21 | 1006.4 |
| 20260504201529 | 27 | 76 | 8.0 | 12.9 | 0.00 | 0.00 | 0.00 | 21 | 1006.4 |
| 20260504200026 | 27 | 75 | 1.6 | 9.7 | 0.00 | 0.00 | 0.00 | 22 | 1006.6 |
| 20260504194531 | 26 | 75 | 3.2 | 12.9 | 0.00 | 0.00 | 0.00 | 22 | 1006.6 |
| 20260504193021 | 26 | 75 | 4.8 | 16.1 | 0.00 | 0.00 | 0.00 | 25 | 1006.7 |
| 20260504191530 | 26 | 75 | 8.0 | 16.1 | 0.00 | 0.00 | 0.00 | 27 | 1006.7 |
| 20260504190013 | 24 | 75 | 9.7 | 16.1 | 0.00 | 0.00 | 0.00 | 27 | 1007.1 |
| 20260504184514 | 23 | 75 | 1.6 | 12.9 | 0.00 | 0.00 | 0.00 | 32 | 1007.3 |
| 20260504183006 | 22 | 79 | 9.7 | 17.7 | 0.00 | 0.00 | 0.00 | 35 | 1007.3 |
| 20260504181510 | 23 | 75 | 12.9 | 16.1 | 0.00 | 0.00 | 0.00 | 33 | 1007.4 |
| 20260504180104 | 23 | 360 | 3.2 | 16.1 | 0.00 | 0.00 | 0.00 | 34 | 1007.3 |
| 20260504174558 | 22 | 360 | 6.4 | 14.5 | 0.00 | 0.00 | 0.00 | 36 | 1007.6 |
| 20260504173053 | 22 | 360 | 6.4 | 14.5 | 0.00 | 0.00 | 0.00 | 37 | 1007.7 |
| 20260504171552 | 21 | 360 | 8.0 | 17.7 | 0.00 | 0.00 | 0.00 | 39 | 1007.8 |